Погода в Вязьме

Погода в Вязьме : погода сейчас, прогноз погоды и архив. Всё, что Вы хотите узнать о погоде в Вязьме!

Поиск расширенной информации на нашем сайте:

Другие новости

Новости СМИ2

Главная страница сайта

Новости сайта

03.07.2017

Напоминаем, что на нашем специализированном сайте Метеоцентр.Азия вы можете получить высокодетализированные автоматические прогнозы погоды по пунктам России, СНГ и мира в авиационном формате (включающие направление и скорость ветра, видимость, явления погоды, количество и форму облачности, нижнюю и верхнюю границу облачности).


Погода в Вязьме - сегодня

Время (UTC), дата Ветер
(°,м/с) 
Видим.   Явления Облачность Т
(°С)
Тd
(°С)
f(%) Тe
(°С)
Pmin
(гПа)
dP
(гПа)
Po
(мм)
O2
(г/м3)
Тmin Tmax R s Состояние
почвы
15 13.01.18 320 (СЗ) 4000 м  дымка  10/10 240 м 
[St]
-10.1 -10.8 95 -12  1045.2  -0.5  759  319           
18 13.01.18 300 (СЗ) 4000 м  дымка  10/10 270 м 
[St]
-10.9 -11.5 95 -11  1044.8  -0.4  759  320    -8.4       
21 13.01.18 280 (З) 4000 м  дымка  10/10 270 м 
[St]
-11.1 -11.8 95 -13  1044.2  -0.7  758  320           
00 14.01.18 020 (С) 4000 м  дымка  10/10 300 м 
[St]
-11.1 -11.9 94 -13  1044.1  0.1  758  320           
03 14.01.18 010 (С) 4000 м  дымка  10/10 300 м 
[St]
-11 -11.9 93 -11  1043.2  -0.9  758  319  -11.4         
06 14.01.18 010 (С) 4000 м  дымка  10/10 300 м 
[St]
-10.8 -11.8 92 -11  1043.1  0.1  758  319  -11.4      равномерный
сухой снег
100% 
09 14.01.18 180 (Ю) 4000 м  дымка  10/10 400 м 
[Sc]
-9.8 -10.8 92 -10  1043  0.1  758  318           
12 14.01.18 тихо ()   4000 м  дымка  10/10 420 м 
[Sc]
-9.1 -10 93 -9  1042.6  -0.3  757  317           
15 14.01.18 020 (С) 4000 м  дымка  10/10 420 м 
[Sc]
-9 -10 92 -9  1042.3  -0.3  757  317           
18 14.01.18 010 (С) 4000 м  дымка  10/10 330 м 
[St]
-8.9 -9.7 94 -9  1041.8  -0.5  757  316    -8.9       
21 14.01.18 360 (С) 4000 м  дымка  10/10 330 м 
[St]
-8.5 -9.2 95 -8  1041.4  -0.3  757  316           
00 15.01.18 360 (С) 4000 м  дымка  10/10 270 м 
[St]
-8.1 -8.7 95 -8  1040.6  -0.8  756  315           
03 15.01.18 340 (С) 4000 м  дымка  10/10 270 м 
[St]
-7.8 -8.4 95 -8  1039.3  -1.2  755  314  -9.2         
06 15.01.18 040 (СВ) 4000 м  дымка  10/10 270 м 
[St]
-7.6 -8.2 95 -7  1038.5  -0.7  755  314  -8.9      равномерный
сухой снег
100% 
09 15.01.18 тихо ()   4000 м  дымка  10/10 210 м 
[St]
-6.7 -7.2 96 -7  1037.8  -0.6  754  312           
12 15.01.18 200 (Ю) 2000 м  дымка  10/10 210 м 
[St]
-6.6 -6.9 98 -6  1036.4  -1.4  753  312           
15 15.01.18 160 (Ю) 4000 м  дымка  10/10 300 м 
[St]
-7 -7.5 96 -8  1035.3  -1.1  752  312           
18 15.01.18 180 (Ю) 4000 м  дымка  10/10 300 м 
[St]
-7.4 -8.1 95 -9  1034.2  -1.2  751  312    -6.4       
21 15.01.18 150 (ЮВ) 10 км    10/10 360 м 
[Sc]
-8.1 -9.8 88 -11  1033.5  -0.7  751  313           
00 16.01.18 160 (Ю) 10 км    10/10 300 м 
[St]
-9.9 -11.6 87 -13  1033  -0.6  750  315           
03 16.01.18 150 (ЮВ) 10 км    10/10 300 м 
[St]
-10.6 -12.2 88 -14  1031.3  -1.8  749  315  -10.6         
06 16.01.18 130 (ЮВ) 10 км    10/10 300 м 
[St]
-12 -13.7 87 -14  1030.3  -1.1  748  317  -12.1      равномерный
сухой снег
100% 
09 16.01.18 100 (В) 10 км    6/0 средняя 
[Ac trans]
-10.2 -12.2 85 -13  1028.3  -1.7  747  314           
12 16.01.18 120 (ЮВ) 10 км    9/0 средняя 
[Ac trans]
-8.8 -12.3 76 -12  1024.8  -3.2  745  311           
15 16.01.18 120 (ЮВ) 4000 м  слаб. снег  10/8 500 м средняя 
[Sc|As op]
-8.7 -10.8 85 -12  1022.7  -2.1  743  310      0.3     
Время (UTC), дата Ветер
(°,м/с) 
Видим.   Явления Облачность Т
(°С)
Тd
(°С)
f(%) Тe
(°С)
Pmin
(гПа)
dP
(гПа)
Po
(мм)
O2
(г/м3)
Тmin Tmax R s Состояние
почвы

Для получения пояснительной информации подведите курсор к названию столбца.

ПОГОДА в Вязьме - архив

Всё, что Вы хотите узнать о погоде в Вязьме - удобно и подробно!

Выберите нужную дату (начиная с 1 января 2015* года) и нажмите кнопку "Найти".
Будут отображены архивные сводки погоды по пункту Вязьма, начиная с указанной даты.


Отображать данные в формате CSV (для использования в таблицах Excel)


Внимание! Наш архив погоды предназначен исключительно для личного некоммерческого использования в познавательных целях. Если Вам необходимы официальные справки о состоянии погоды (для производственных, юридических, коммерческих и т.п. целей), обращайтесь в органы Росгидромета.

*Примечание: данная дата относится к архиву по метеостанциям СССР (Россия, СНГ, Балтия).
Архив по метеостанциям Зарубежной Европы и Азии (кроме Китая) хранится 10 дней, по другим регионам земного шара (Китай, Африка, Америка, Австралия, Океания) - 1 день.

Вязьма - район местоположения метеостанции


Название, широта, долгота, высота метеостанции:
Вязьма 55.2°ш. 34.4°д. 251 м над ур. моря [Российская Федерация]

Дополнительная информация

В oтличие oт бoльшинства пoгoдных сайтoв мы публикуем пoдрoбную метеoинфoрмацию в детальнoм прoфессиoнальнoм фoрмате.

Характеристики температуры и влажнoсти вoздуха измеряются на высoте 2 м в тени вдали oт зданий и деревьев.
Скoрoсть ветра измеряется на высoте 10 м (на урoвне рoста челoвека скoрoсть ветра ниже в 1.5-2 раза). Если метеoстанция нахoдится в гoрoде или в лесу, тo скoрoсть ветра занижена на 2-4 м/с пo сравнению с oткрытым местoм. Скoрoсть ветра над акватoриями крупных рек и oзёр, а также на вершинах хoлмoв на 2-5 м/с выше, чем в oбычных услoвиях.
Атмoсфернoе давление в разных тoчках местнoсти мoжет значительнo oтличаться oт давления на метеoстанции, в зависимoсти oт услoвий рельефа (при пoдъёме на 10 м давление пoнижается примернo на 1 мм рт.ст.).